Location: *
(46.3500°N, 10.9000°E)
Time: 22:34:49
(UTC+00:00)

A-11 Canister half - Pass Details

Date: 26 April 2021
Orbit: 1526 x 1682 km, 47.3° (Epoch: 13 May)

Event Time Altitude Azimuth Distance (km) Brightness Sun altitude
Rises 11:07:59 0° 195° (SSW) 4,785 12.1 57.3°
Reaches altitude 10° 11:11:38 10° 184° (S) 3,827 11.8 57.3°
Maximum altitude 11:19:24 28° 131° (SE) 2,734 11.1 57.3°
Drops below altitude 10° 11:27:21 10° 78° (ENE) 3,927 11.2 57.2°
Sets 11:31:07 0° 68° (ENE) 4,930 11.5 57.1°
